Wind_Speed
74 79 86 91 109 115 123 122 111 101 104 87 95 100 96 85 89 81 81 74 76 71 66 55 58 50 45 46 42 38 35 34 34 35 32 27 28 25 27 30 30 30 37 34 25
68 73 79 82 105 114 124 121 114 104 101 92 89 97 99 94 86 88 75 61 72 73 64 60 54 53 49 48 50 42 40 35 30 27 30 28 29 29 26 25 28 30 34 36 32
69 72 76 86 103 114 118 126 119 110 109 98 89 92 100 92 94 87 90 77 67 66 67 63 57 58 54 52 44 46 42 37 33 31 27 29 30 30 29 30 30 30 33 34 32
68 70 77 85 102 108 114 126 122 109 113 101 89 90 99 88 96 79 88 81 69 70 64 62 64 64 57 59 59 47 49 47 42 39 38 31 28 29 29 22 27 26 29 27 31
66 71 73 80 99 109 107 120 120 113 107 110 92 90 94 101 82 90 83 90 79 73 67 73 71 63 64 63 60 52 47 43 36 35 36 37 39 33 30 28 28 28 29 29 30
67 71 74 80 88 105 101 112 126 118 111 104 97 92 88 101 101 89 90 85 69 72 69 69 63 65 63 59 52 54 52 44 39 39 40 42 35 37 34 34 36 34 33 33 33
72 72 69 79 91 98 101 114 126 125 110 113 107 90 94 90 94 92 88 89 75 82 74 68 69 58 62 59 58 55 51 50 45 45 43 38 37 35 29 36 34 31 29 29 29
75 71 73 75 81 89 97 117 125 125 112 108 110 102 99 92 94 91 84 87 90 83 79 76 69 60 68 61 57 55 54 50 50 50 45 37 36 40 42 32 34 36 33 28 28
74 75 76 81 85 94 94 111 115 126 117 115 102 103 95 95 91 95 95 87 91 89 83 71 70 71 70 66 66 58 55 57 52 49 50 48 40 41 41 40 38 39 39 30 23
80 79 77 80 85 89 91 95 108 120 131 115 109 112 94 97 94 88 93 97 88 88 83 83 77 72 62 61 64 65 58 61 59 58 53 48 45 44 42 43 35 40 36 34 28
78 78 81 81 82 87 88 91 101 125 127 113 120 106 96 99 101 95 87 94 90 81 82 74 72 78 64 67 71 68 65 61 51 53 54 61 51 48 47 47 37 37 40 40 37
76 79 78 82 83 86 87 88 92 119 119 125 116 120 115 104 99 93 99 95 95 89 79 77 71 81 86 77 68 72 66 61 62 60 54 49 55 54 55 55 51 50 44 45 49
77 77 77 82 83 81 85 87 95 101 124 116 118 115 120 105 107 99 102 98 96 95 89 85 78 78 81 86 77 75 71 75 69 63 57 52 51 55 49 51 53 53 49 54 54
73 76 76 82 84 83 85 90 91 92 120 119 117 115 114 109 111 109 104 102 102 99 99 97 89 90 84 77 75 78 78 81 76 70 65 57 54 57 60 59 56 57 56 56 60
76 80 78 82 83 86 87 89 87 89 103 114 122 115 110 110 97 105 106 111 98 98 98 97 95 89 87 83 80 78 78 81 78 69 71 67 64 66 63 62 64 65 61 63 66
80 80 76 84 84 86 93 94 90 94 97 95 105 110 115 112 106 108 111 109 107 102 96 96 94 91 89 90 92 83 87 81 84 86 73 74 73 71 73 68 66 67 68 69 68
83 81 72 76 82 86 96 101 97 89 91 87 84 95 104 109 112 116 110 111 106 104 101 99 99 97 90 90 86 81 84 88 86 85 80 78 80 76 72 74 73 73 76 78 74
82 79 76 77 76 82 94 102 94 83 90 80 85 85 88 97 112 114 116 117 113 111 107 104 104 105 101 95 91 88 88 90 90 88 85 84 82 81 80 77 80 83 85 85 78
84 83 78 79 84 88 96 106 99 83 88 84 89 92 89 89 89 97 104 108 115 116 118 118 111 105 106 112 109 104 105 103 95 92 91 91 90 89 87 86 88 87 89 90 88
86 85 84 83 84 93 94 103 107 96 95 94 86 96 94 90 90 91 92 96 100 111 114 117 121 116 112 108 109 104 105 102 99 97 98 96 91 91 90 88 90 92 89 91 94
91 89 85 82 86 97 95 96 107 106 98 97 89 94 98 96 98 97 95 95 97 101 108 114 115 114 119 117 113 110 109 110 110 108 101 97 98 95 95 96 97 94 93 96 98
99 96 92 84 86 90 99 98 106 114 106 103 97 99 102 103 102 100 98 99 100 102 104 106 108 112 106 110 115 116 116 116 112 106 107 107 104 101 99 98 96 97 100 100 101
93 95 91 89 90 94 96 98 97 110 109 106 103 104 106 104 104 102 101 101 98 100 102 103 107 111 113 112 109 107 106 106 105 105 103 103 94 98 98 99 101 103 102 98 96
97 95 96 90 94 93 89 91 91 99 113 112 106 105 107 109 105 103 102 100 100 100 100 102 103 103 101 99 102 102 102 101 103 106 99 97 96 100 99 101 103 103 100 99 99
102 98 102 97 98 94 91 91 89 92 105 112 111 108 103 105 109 109 108 107 105 102 101 102 104 103 99 96 97 97 97 98 99 95 100 90 96 96 97 101 102 102 101 103 104
107 102 106 104 103 101 94 97 98 96 94 104 111 113 113 109 106 106 109 109 108 109 108 103 100 101 102 101 102 104 102 101 102 102 101 97 98 98 101 101 101 104 103 105 104
108 108 110 109 108 105 100 101 101 100 99 101 102 109 114 113 115 109 109 110 109 109 108 108 109 108 105 101 104 106 100 101 102 103 103 102 99 102 105 106 107 107 108 107 109
Wind_Direction
219 216 207 207 205 204 201 200 197 197 201 202 206 207 208 208 209 205 208 209 209 212 216 216 222 223 222 237 230 230 239 247 247 245 252 257 264 270 282 293 300 304 306 318 334
214 215 210 207 205 204 202 200 197 197 197 202 205 207 209 208 213 207 204 215 218 217 217 220 214 219 217 232 228 233 238 230 237 244 245 250 259 268 281 294 300 303 305 315 320
212 211 208 208 204 204 204 201 199 200 200 202 204 208 208 212 213 207 210 212 206 221 220 223 222 221 228 225 222 232 233 235 237 250 247 257 274 278 282 286 290 297 305 310 311
209 209 209 208 206 204 205 204 200 200 200 203 205 208 210 209 213 207 210 211 217 216 222 225 230 230 222 226 232 240 243 249 252 255 258 259 269 281 278 278 288 293 299 303 313
204 207 207 205 203 207 206 207 206 199 198 203 202 205 208 209 211 213 212 210 213 214 219 227 228 230 222 226 232 237 245 246 248 255 252 264 273 272 269 276 286 287 294 296 307
200 204 205 205 204 208 207 209 208 198 201 202 203 209 206 210 213 216 212 209 211 214 224 224 219 220 228 231 238 236 242 245 249 260 257 264 269 268 269 281 288 284 284 296 302
202 206 205 205 204 204 209 207 208 200 202 205 205 207 210 209 214 213 214 214 214 216 220 225 226 231 233 236 233 232 239 248 246 255 255 264 257 265 271 277 276 281 295 298 302
202 202 202 203 204 202 205 209 208 202 200 202 206 211 213 210 214 210 210 219 221 215 225 224 227 222 226 236 237 231 244 243 245 249 251 257 262 266 270 263 271 279 291 288 296
199 200 202 202 201 203 204 208 210 204 203 202 206 209 212 213 214 212 215 219 217 220 222 223 226 225 239 239 238 236 242 240 239 243 255 262 255 260 269 264 274 273 286 283 295
201 200 203 198 199 202 206 206 208 206 203 203 205 206 212 214 213 212 218 219 218 220 224 223 227 227 227 237 231 235 244 244 245 250 250 257 257 254 273 271 263 278 275 273 285
202 200 201 200 202 202 204 205 206 210 203 205 208 206 207 210 215 213 217 214 213 216 221 222 227 226 229 228 230 237 239 246 248 246 260 251 256 255 263 258 261 273 271 275 277
201 203 199 201 202 203 202 205 207 210 205 207 208 210 212 213 211 214 215 215 218 222 220 224 226 232 233 233 241 233 244 243 243 247 244 256 255 262 257 261 261 271 269 274 284
203 203 200 202 202 204 201 203 204 208 213 208 206 211 214 212 215 212 214 219 217 218 219 223 227 231 232 237 237 238 244 247 242 251 244 248 257 255 256 258 262 271 273 281 284
199 199 200 207 206 202 199 199 201 205 213 212 211 211 214 214 217 218 218 218 221 224 227 230 231 229 236 233 238 240 240 246 247 248 245 246 255 257 260 260 263 272 273 276 285
201 199 204 201 204 199 198 202 197 201 208 214 211 213 216 215 217 222 224 226 223 225 227 229 230 227 230 234 238 238 242 243 244 247 248 249 252 261 256 260 267 272 271 279 284
201 206 205 205 203 205 197 200 200 201 205 207 215 214 217 219 215 217 216 220 224 223 223 226 229 233 238 239 242 241 242 245 246 247 249 252 253 259 264 262 263 266 274 279 282
201 201 201 209 208 205 201 199 200 201 202 204 211 216 219 220 223 221 219 218 220 223 226 228 231 233 234 233 236 239 241 244 246 249 251 254 255 257 260 266 267 267 273 276 279
203 199 200 202 207 207 205 205 198 195 199 202 207 211 218 221 224 224 226 228 230 230 229 232 233 233 235 237 238 238 242 244 244 247 252 253 258 261 262 264 267 271 276 277 277
202 203 200 206 205 202 207 204 196 195 197 199 207 207 212 218 221 223 226 226 229 230 234 237 234 236 239 243 243 245 246 249 250 252 254 257 259 262 266 269 269 271 276 278 278
203 204 202 204 211 208 213 206 200 199 201 199 205 208 208 213 215 220 224 225 226 229 229 230 233 234 236 238 242 245 244 246 249 252 257 260 257 264 264 266 269 271 272 275 277
202 204 204 204 210 212 216 208 205 201 205 200 204 208 209 210 215 217 221 221 223 228 230 229 231 235 237 241 243 244 246 250 252 254 256 257 258 260 261 265 269 268 269 272 274
203 208 207 207 213 216 217 216 208 206 208 206 206 207 210 212 214 217 219 223 224 226 228 231 232 233 234 238 241 243 246 247 249 251 255 255 257 261 263 265 265 265 270 271 271
205 208 206 208 213 218 219 220 216 210 210 211 208 210 210 213 215 218 220 223 225 228 230 231 233 234 236 239 242 246 248 249 252 254 255 256 259 260 261 262 264 267 268 270 270
205 208 205 211 213 217 222 222 220 217 215 214 214 216 213 215 216 218 220 223 225 228 231 233 234 237 240 242 240 241 243 245 248 250 253 254 256 258 261 262 262 265 266 267 269
208 208 207 211 213 216 220 220 223 222 218 218 218 220 220 219 219 220 222 223 226 228 233 236 238 237 237 238 242 245 245 247 249 252 254 255 257 259 260 261 263 263 263 264 267
210 210 210 212 213 213 216 221 221 222 224 222 220 220 223 223 223 222 224 224 227 229 230 233 237 241 241 242 242 242 244 247 250 252 254 254 254 257 259 259 261 263 264 265 266
209 211 212 212 213 214 217 220 223 227 226 225 224 225 225 226 227 225 226 227 227 228 231 234 235 237 239 241 242 242 244 246 249 252 254 255 256 256 259 262 262 263 264 265 267
Height
10517 10535 10551 10567 10582 10595 10611 10625 10639 10653 10666 10681 10694 10706 10719 10730 10740 10750 10758 10772 10779 10787 10794 10802 10807 10814 10822 10827 10832 10836 10841 10844 10847 10850 10851 10852 10854 10856 10856 10858 10857 10856 10856 10857 10855
10501 10516 10532 10547 10565 10580 10598 10612 10626 10640 10658 10670 10683 10698 10708 10720 10731 10742 10757 10763 10772 10781 10786 10794 10801 10808 10815 10821 10826 10830 10836 10839 10841 10844 10846 10848 10848 10851 10853 10853 10853 10852 10852 10853 10852
10487 10501 10516 10533 10548 10566 10583 10598 10610 10630 10645 10661 10672 10688 10699 10711 10723 10737 10744 10752 10762 10771 10780 10788 10796 10802 10808 10814 10818 10825 10830 10833 10836 10838 10842 10844 10844 10846 10849 10850 10850 10850 10849 10849 10849
10473 10488 10503 10518 10533 10552 10568 10582 10600 10620 10635 10652 10664 10676 10689 10702 10715 10725 10736 10747 10755 10764 10773 10781 10787 10793 10800 10805 10810 10818 10824 10826 10830 10833 10836 10838 10839 10841 10843 10844 10845 10847 10846 10847 10846
10464 10478 10492 10505 10522 10540 10554 10568 10589 10608 10624 10639 10655 10666 10679 10694 10703 10717 10731 10738 10746 10756 10766 10772 10778 10784 10791 10796 10804 10812 10817 10821 10824 10828 10830 10831 10833 10835 10837 10838 10840 10842 10843 10843 10844
10451 10464 10477 10495 10508 10526 10542 10558 10576 10598 10615 10630 10644 10654 10667 10682 10695 10705 10718 10727 10736 10746 10755 10762 10770 10778 10783 10791 10799 10805 10810 10815 10817 10822 10824 10826 10827 10829 10832 10832 10833 10835 10838 10838 10840
10439 10452 10468 10483 10502 10516 10532 10547 10564 10587 10605 10620 10635 10643 10655 10670 10683 10695 10708 10718 10727 10736 10744 10753 10761 10770 10774 10783 10790 10796 10803 10808 10810 10814 10818 10819 10823 10823 10829 10826 10827 10829 10831 10833 10835
10425 10441 10456 10470 10486 10502 10519 10538 10556 10574 10594 10609 10621 10631 10646 10660 10673 10685 10695 10706 10716 10724 10735 10744 10753 10761 10769 10774 10782 10789 10795 10799 10801 10806 10809 10812 10817 10817 10819 10821 10821 10823 10826 10828 10830
10417 10430 10445 10460 10476 10492 10507 10525 10540 10562 10579 10595 10611 10622 10637 10650 10662 10674 10686 10694 10705 10713 10723 10733 10743 10754 10761 10766 10774 10781 10784 10787 10794 10798 10802 10804 10810 10811 10810 10812 10814 10818 10821 10822 10824
10407 10421 10435 10451 10465 10479 10497 10512 10528 10546 10568 10581 10598 10613 10628 10639 10649 10659 10672 10682 10694 10703 10714 10726 10736 10745 10751 10757 10763 10765 10768 10776 10784 10792 10795 10797 10799 10803 10803 10802 10806 10811 10815 10817 10818
10398 10413 10424 10441 10454 10471 10488 10503 10515 10536 10566 10578 10592 10607 10612 10624 10636 10648 10658 10670 10679 10692 10705 10715 10724 10737 10733 10737 10748 10757 10764 10771 10777 10782 10785 10787 10790 10795 10796 10795 10800 10803 10806 10809 10814
10392 10405 10419 10433 10445 10462 10481 10494 10505 10526 10545 10557 10574 10586 10594 10608 10618 10633 10649 10659 10672 10684 10692 10703 10716 10711 10720 10732 10740 10749 10755 10759 10763 10769 10777 10778 10779 10785 10787 10787 10793 10795 10798 10799 10805
10383 10397 10410 10423 10437 10456 10470 10482 10495 10508 10524 10539 10554 10567 10580 10596 10609 10619 10632 10645 10656 10667 10678 10688 10690 10698 10711 10720 10729 10737 10741 10744 10753 10761 10768 10769 10769 10773 10777 10778 10783 10787 10792 10792 10794
10375 10387 10399 10412 10429 10445 10460 10471 10484 10496 10510 10526 10544 10556 10565 10581 10596 10608 10621 10635 10646 10657 10665 10672 10680 10692 10702 10710 10718 10724 10725 10733 10742 10750 10757 10759 10762 10760 10767 10772 10772 10776 10781 10784 10784
10368 10378 10389 10404 10419 10434 10448 10460 10471 10479 10494 10512 10526 10545 10558 10574 10591 10603 10614 10624 10634 10643 10653 10666 10669 10677 10686 10694 10699 10708 10713 10721 10729 10736 10745 10748 10752 10747 10754 10762 10763 10767 10770 10772 10773
10357 10370 10382 10395 10406 10420 10431 10443 10454 10461 10488 10507 10524 10538 10550 10566 10573 10583 10590 10601 10615 10626 10637 10651 10657 10665 10676 10681 10689 10695 10701 10708 10715 10722 10733 10734 10739 10739 10741 10748 10753 10757 10758 10759 10759
10347 10359 10374 10386 10398 10409 10421 10427 10438 10463 10480 10499 10515 10530 10539 10550 10560 10569 10578 10591 10603 10615 10627 10639 10644 10654 10660 10664 10675 10683 10686 10690 10697 10707 10720 10718 10722 10730 10733 10734 10739 10743 10744 10745 10746
10338 10350 10364 10377 10388 10399 10409 10413 10433 10460 10472 10489 10500 10509 10521 10533 10542 10556 10566 10579 10593 10604 10613 10621 10629 10639 10647 10650 10658 10659 10664 10673 10679 10690 10701 10705 10711 10718 10724 10726 10724 10722 10724 10729 10730
10328 10341 10355 10367 10375 10385 10390 10400 10435 10450 10460 10470 10477 10487 10500 10513 10530 10541 10552 10567 10576 10585 10596 10605 10612 10620 10627 10630 10635 10648 10656 10658 10664 10673 10684 10694 10703 10704 10706 10713 10712 10709 10707 10708 10710
10316 10329 10342 10356 10366 10374 10375 10396 10418 10429 10439 10447 10460 10471 10483 10496 10509 10519 10530 10548 10558 10567 10572 10580 10588 10597 10602 10607 10617 10634 10635 10641 10652 10661 10668 10677 10684 10690 10690 10692 10695 10697 10695 10693 10690
10304 10316 10330 10342 10352 10356 10360 10387 10404 10412 10424 10433 10445 10458 10470 10479 10489 10499 10510 10525 10534 10544 10551 10560 10568 10578 10582 10595 10608 10610 10621 10625 10630 10640 10652 10662 10669 10673 10673 10675 10676 10677 10679 10679 10676
10290 10304 10316 10327 10335 10342 10352 10370 10387 10401 10410 10422 10432 10441 10452 10463 10472 10483 10497 10506 10516 10525 10534 10540 10546 10553 10566 10573 10581 10591 10602 10607 10614 10631 10632 10640 10653 10658 10658 10658 10658 10657 10657 10655 10655
10278 10290 10302 10313 10321 10330 10341 10356 10376 10388 10398 10409 10421 10427 10439 10448 10457 10470 10481 10491 10502 10508 10516 10526 10532 10541 10548 10561 10577 10588 10595 10598 10600 10603 10614 10616 10641 10633 10637 10637 10634 10632 10631 10635 10636
10262 10274 10287 10298 10308 10317 10327 10340 10356 10372 10384 10396 10408 10417 10426 10433 10444 10456 10465 10477 10486 10494 10500 10502 10515 10528 10546 10557 10555 10561 10569 10572 10572 10576 10599 10603 10610 10612 10615 10614 10611 10611 10613 10614 10615
10247 10261 10271 10284 10293 10304 10315 10327 10338 10353 10366 10378 10387 10399 10412 10421 10430 10441 10450 10461 10471 10479 10483 10488 10501 10512 10525 10534 10539 10547 10552 10553 10556 10571 10564 10594 10586 10588 10591 10584 10589 10592 10593 10595 10594
10232 10246 10256 10267 10275 10286 10298 10312 10324 10334 10347 10359 10376 10383 10392 10403 10414 10425 10434 10443 10453 10463 10469 10478 10488 10494 10503 10513 10520 10526 10530 10536 10541 10545 10554 10567 10565 10568 10562 10563 10564 10565 10569 10570 10570
10211 10226 10237 10248 10259 10272 10283 10294 10303 10315 10328 10339 10353 10364 10379 10382 10393 10403 10415 10424 10435 10444 10453 10462 10471 10476 10484 10491 10495 10499 10523 10519 10524 10529 10532 10540 10548 10542 10539 10540 10540 10545 10547 10547 10547